PROXIMA I (43694 NORAD) Tracking and Keplerian Element Data

This shows tracking and keplerian element data for the satellite.

Feedback or suggestion? Click here.




ElementValue
Catalog43694
NamePROXIMA I
Epoch Orbit30595
Epoch Day126.18964589
Epoch Year2024
RAAN203.0629
Inclination85.0041
Eccentricity0.000438
Argument of Perigee261.2563
Mean Anonmoly98.8223
Mean Motion15.96087017
Decay Rate0.00493989
L11 43694U 18088E 24126.18964589 .00493989 98364-4 12114-2 0 9993
L22 43694 85.0041 203.0629 0004380 261.2563 98.8223 15.96087017305956



Live tracking and technical data element details for PROXIMA I (NORAD 43694). PROXIMA I can be tracked NOW for your location showing map with azimuth and elevation plus other details from your city location.







IsCatalogInMostPopularTable: catalog: 43694, numindb: 494
Update: records affected: 1



GetName: 43694 PROXIMA I

Hit Count: updated at: Fri, 16 May 2025 11:28:17 GMT